4XTAB LLMZ-LLMZ

Flight info

Callsign 4XTAB
Flight time 0h 18m
Altitude 800
Route CIRCUITS
Aircraft C172/L-C172/5100

Departure

Time 2026-04-12 19:25
Airport Bar Yehuda Airfield (LLMZ)

Arrival

Time 2026-04-12 19:44
Airport Bar Yehuda Airfield (LLMZ)
Time Latitude Longitude Altitude Speed Heading
2026-04-12 19:18 31.32970 35.38793 -1242 ft 0 kts 99°
2026-04-12 19:19 31.32970 35.38792 -1242 ft 0 kts 99°
2026-04-12 19:19 31.32991 35.38797 -1241 ft 0 kts 99°
2026-04-12 19:21 31.32980 35.38832 -1242 ft 13 kts 124°
2026-04-12 19:21 31.32969 35.38859 -1243 ft 0 kts 91°
2026-04-12 19:22 31.32969 35.38860 -1243 ft 1 kts 90°
2026-04-12 19:22 31.33004 35.38890 -1242 ft 14 kts
2026-04-12 19:22 31.33124 35.38916 -1239 ft 20 kts 11°
2026-04-12 19:23 31.33257 35.38942 -1236 ft 18 kts
2026-04-12 19:23 31.33353 35.38945 -1234 ft 7 kts 68°
2026-04-12 19:23 31.33320 35.38956 -1235 ft 7 kts 195°
2026-04-12 19:23 31.33290 35.38949 -1236 ft 0 kts 183°
2026-04-12 19:25 31.33090 35.38908 -1239 ft 59 kts 190°
2026-04-12 19:25 31.32575 35.38804 -1137 ft 83 kts 187°
2026-04-12 19:25 31.32003 35.38736 -883 ft 81 kts 177°
2026-04-12 19:25 31.31569 35.39023 -628 ft 78 kts 120°
2026-04-12 19:26 31.31332 35.39593 -472 ft 75 kts 114°
2026-04-12 19:26 31.31114 35.40142 -367 ft 71 kts 110°
2026-04-12 19:26 31.31094 35.40730 -325 ft 76 kts 56°
2026-04-12 19:26 31.31619 35.40873 -375 ft 90 kts 350°
2026-04-12 19:27 31.32293 35.40904 -503 ft 102 kts
2026-04-12 19:27 31.32928 35.40963 -353 ft 84 kts 356°
2026-04-12 19:27 31.33517 35.40888 -354 ft 87 kts 349°
2026-04-12 19:27 31.34104 35.40740 -352 ft 87 kts 347°
2026-04-12 19:28 31.34499 35.40377 -411 ft 77 kts 282°
2026-04-12 19:28 31.34497 35.39801 -483 ft 68 kts 262°
2026-04-12 19:28 31.34421 35.39263 -582 ft 62 kts 236°
2026-04-12 19:28 31.33994 35.39072 -787 ft 71 kts 188°
2026-04-12 19:29 31.33501 35.38985 -1003 ft 71 kts 189°
2026-04-12 19:29 31.33009 35.38900 -1098 ft 75 kts 184°
2026-04-12 19:29 31.32431 35.38808 -955 ft 88 kts 185°
2026-04-12 19:29 31.31814 35.38757 -743 ft 89 kts 179°
2026-04-12 19:30 31.31219 35.38777 -527 ft 79 kts 165°
2026-04-12 19:30 31.30896 35.39272 -544 ft 80 kts 104°
2026-04-12 19:30 31.30767 35.39879 -517 ft 77 kts 100°
2026-04-12 19:30 31.30620 35.40481 -502 ft 76 kts 108°
2026-04-12 19:31 31.30535 35.41089 -513 ft 78 kts 65°
2026-04-12 19:31 31.31006 35.41380 -557 ft 82 kts 355°
2026-04-12 19:31 31.31538 35.41403 -465 ft 75 kts
2026-04-12 19:31 31.32060 35.41452 -409 ft 73 kts
2026-04-12 19:32 31.32571 35.41517 -458 ft 74 kts
2026-04-12 19:32 31.33112 35.41548 -521 ft 82 kts 358°
2026-04-12 19:32 31.33701 35.41579 -615 ft 91 kts
2026-04-12 19:32 31.34283 35.41671 -523 ft 72 kts
2026-04-12 19:33 31.34738 35.41609 -533 ft 71 kts 302°
2026-04-12 19:33 31.34783 35.41040 -563 ft 70 kts 266°
2026-04-12 19:33 31.34753 35.40512 -536 ft 58 kts 263°
2026-04-12 19:33 31.34704 35.40030 -606 ft 62 kts 266°
2026-04-12 19:34 31.34682 35.39539 -648 ft 56 kts 257°
2026-04-12 19:34 31.34509 35.39131 -751 ft 58 kts 198°
2026-04-12 19:34 31.34073 35.39060 -905 ft 66 kts 191°
2026-04-12 19:34 31.33602 35.39013 -1048 ft 68 kts 191°
2026-04-12 19:35 31.33129 35.38919 -1200 ft 69 kts 187°
2026-04-12 19:35 31.32701 35.38828 -1186 ft 64 kts 194°
2026-04-12 19:35 31.32206 35.38685 -1027 ft 77 kts 191°
2026-04-12 19:35 31.31661 35.38569 -817 ft 81 kts 188°
2026-04-12 19:36 31.31232 35.38811 -546 ft 76 kts 111°
2026-04-12 19:36 31.31119 35.39466 -424 ft 87 kts 92°
2026-04-12 19:36 31.31152 35.40140 -406 ft 87 kts 79°
2026-04-12 19:36 31.31393 35.40731 -362 ft 79 kts 17°
2026-04-12 19:37 31.31963 35.40723 -371 ft 81 kts 355°
2026-04-12 19:37 31.32537 35.40678 -402 ft 87 kts 354°
2026-04-12 19:37 31.33138 35.40683 -364 ft 82 kts
2026-04-12 19:37 31.33694 35.40681 -324 ft 80 kts 354°
2026-04-12 19:38 31.34265 35.40622 -338 ft 78 kts 353°
2026-04-12 19:38 31.34622 35.40320 -400 ft 70 kts 281°
2026-04-12 19:38 31.34676 35.39723 -559 ft 77 kts 274°
2026-04-12 19:38 31.34595 35.39171 -618 ft 63 kts 207°
2026-04-12 19:39 31.34118 35.39069 -844 ft 73 kts 191°
2026-04-12 19:39 31.33604 35.38995 -1045 ft 73 kts 189°
2026-04-12 19:39 31.33268 35.38937 -1167 ft 68 kts 187°
2026-04-12 19:39 31.32739 35.38823 -1243 ft 58 kts 190°
2026-04-12 19:40 31.32268 35.38687 -1150 ft 74 kts 194°
2026-04-12 19:40 31.31745 35.38537 -967 ft 76 kts 192°
2026-04-12 19:40 31.31370 35.38720 -734 ft 67 kts 102°
2026-04-12 19:40 31.31353 35.39297 -628 ft 74 kts 79°
2026-04-12 19:41 31.31473 35.39896 -509 ft 74 kts 69°
2026-04-12 19:41 31.31735 35.40413 -417 ft 69 kts 21°
2026-04-12 19:41 31.32254 35.40511 -455 ft 84 kts
2026-04-12 19:41 31.32831 35.40599 -409 ft 83 kts
2026-04-12 19:42 31.33405 35.40642 -405 ft 84 kts
2026-04-12 19:42 31.33998 35.40634 -457 ft 86 kts 360°
2026-04-12 19:42 31.34562 35.40600 -523 ft 75 kts 336°
2026-04-12 19:43 31.34893 35.39484 -730 ft 66 kts 269°
2026-04-12 19:43 31.34716 35.39059 -838 ft 67 kts 191°
2026-04-12 19:43 31.34267 35.39034 -938 ft 65 kts 177°
2026-04-12 19:43 31.33820 35.39027 -1066 ft 65 kts 186°
2026-04-12 19:44 31.33376 35.38953 -1194 ft 64 kts 188°
2026-04-12 19:44 31.32971 35.38879 -1242 ft 50 kts 191°
2026-04-12 19:44 31.32787 35.38840 -1246 ft 20 kts 188°
2026-04-12 19:44 31.32624 35.38809 -1250 ft 29 kts 190°
2026-04-12 19:45 31.32453 35.38772 -1256 ft 11 kts 194°
2026-04-12 19:45 31.32439 35.38744 -1256 ft 0 kts 290°